{"data":{"norad_id":65160,"intl_designator":"2025-173A","name":"NTS-3","alt_names":[],"object_type":"PAYLOAD","status":"ACTIVE","operator":null,"country":"US","launch_date":"2025-08-13","launch_site_code":"AFETR","launch_vehicle":null,"mission":null,"orbit_class":"UNKNOWN","rcs_meters":null,"size_class":null,"mass_kg":null,"dimensions":null,"purposes":[],"wikipedia_slug":null,"has_3d_model":false,"image_url":null,"decayed_at":null,"tle_current":{"epoch":"2026-09-21T20:06:24.456384Z","epoch_age_seconds":49157,"freshness":"FRESH","line1":"1 65160U 25173A   26264.83778306 -.00000216  00000+0  00000+0 0  9996","line2":"2 65160   3.4763  70.6904 0001252 135.1935  57.5555  1.00658120  1002","mean_motion":1.0065812,"eccentricity":0.0001252,"inclination_deg":3.4763,"raan_deg":70.6904,"arg_perigee_deg":135.1935,"mean_anomaly_deg":57.5555,"bstar":0,"rev_number":100,"period_min":1430.5850337757,"perigee_km":35673.372275636,"apogee_km":35683.903292042,"semimajor_km":42056.774783839,"source":"CELESTRAK","updated_at":"2026-09-22T09:00:30.162061Z"}}}